User: anonymous
Location: Lawrence Hall of Science
(37.8785°N, 122.2415°W)
Time: 03:16:47
(UTC-07:00)
Language:

Cosmos 2098 Rocket - Orbit

View from above orbital plane
View from above orbital plane
View from above satellite
View from above satellite

Ground track
Ground track

The orbit data is extracted from the following two-line orbital elements,

1 20775U 90078B   14273.71673635  .00010309  00000-0  55327-3 0  5231
2 20775 082.9325 134.6804 0636976 133.8006 275.5728 14.19095271207561
Epoch (UTC): 30 September 2014 17:12:06
Eccentricity: 0.0636976
inclination: 82.9325°
perigee height: 369 km
apogee height: 1287 km
right ascension of ascending node: 134.6804°
argument of perigee: 133.8006°
revolutions per day: 14.19095271
mean anomaly at epoch: 275.5728°
orbit number at epoch: 20756

The dashed part of the orbit path shows where the satellite is in the earth's shadow,  

DLR